This is the latest recevied weather packets stored in our database for station/object KD8ZLZ-13. If no packets are shown the sender has not sent any weather packets the latest 10 day(s).
| Time | Temp. | Humidity | Pressure | Rain* | Wind** | Luminosity | Snow |
|---|---|---|---|---|---|---|---|
| 1777923794 | 24.44° C | 34% | 1002.7 hPa | 0 mm | - | 798 W/m² | - |
| 1777923194 | 24.44° C | 34% | 1002.7 hPa | 0 mm | - | 826 W/m² | - |
| 1777922594 | 24.44° C | 34% | 1003.1 hPa | 0 mm | - | 856 W/m² | - |
| 1777921994 | 23.89° C | 33% | 1002.7 hPa | 0 mm | - | 858 W/m² | - |
| 1777921394 | 24.44° C | 33% | 1003.1 hPa | 0 mm | - | 884 W/m² | - |
| 1777920794 | 23.89° C | 33% | 1003.1 hPa | 0 mm | - | 904 W/m² | - |
| 1777920194 | 23.89° C | 34% | 1003.1 hPa | 0 mm | - | 916 W/m² | - |
| 1777919594 | 23.89° C | 33% | 1003.4 hPa | 0 mm | - | 917 W/m² | - |
| 1777918994 | 23.89° C | 33% | 1003.4 hPa | 0 mm | - | 931 W/m² | - |
| 1777918394 | 23.33° C | 30% | 1003.8 hPa | 0 mm | - | 937 W/m² | - |
| 1777917794 | 23.89° C | 34% | 1003.8 hPa | 0 mm | - | 949 W/m² | - |
| 1777917194 | 23.33° C | 35% | 1003.8 hPa | 0 mm | - | 952 W/m² | - |
| 1777916594 | 23.33° C | 37% | 1004.1 hPa | 0 mm | - | 952 W/m² | - |
| 1777915995 | 23.33° C | 37% | 1004.4 hPa | 0 mm | - | 950 W/m² | - |
| 1777915394 | 22.78° C | 38% | 1004.4 hPa | 0 mm | - | 950 W/m² | - |
| 1777914794 | 22.78° C | 40% | 1004.8 hPa | 0 mm | - | 947 W/m² | - |
| 1777914194 | 22.22° C | 41% | 1004.8 hPa | 0 mm | - | 947 W/m² | - |
| 1777913594 | 22.22° C | 43% | 1005.1 hPa | 0 mm | - | 936 W/m² | - |
| 1777912994 | 21.67° C | 44% | 1005.1 hPa | 0 mm | - | 926 W/m² | - |
| 1777912394 | 21.11° C | 45% | 1005.1 hPa | 0 mm | - | 911 W/m² | - |
| 1777911794 | 20.56° C | 47% | 1005.4 hPa | 0 mm | - | 897 W/m² | - |
| 1777911194 | 20.56° C | 47% | 1005.4 hPa | 0 mm | - | 879 W/m² | - |
| 1777910594 | 20.56° C | 48% | 1005.4 hPa | 0 mm | - | 864 W/m² | - |
| 1777909994 | 20° C | 49% | 1005.4 hPa | 0 mm | - | 846 W/m² | - |
| 1777909394 | 19.44° C | 49% | 1005.8 hPa | 0 mm | - | 828 W/m² | - |
* Rain latest hour (hover to see other rain measurements)
** Current wind speed in m/s (hover to see current wind gust speed)